• Currently

    Reported at Minneapolis, Minneapolis-St. Paul International Airport, MN
    9:53 AM CST MON MAY 29 2017
  • 59°F15°C
  • Overcast
    Overcast
  • Feels Like:59°F15°CDew Point:48°F9°CHumidity:68% Winds:NW 15 mph G 2124 kph G 34
    Pressure:29.8 in1009 hPaVisibility:10.00 miles16090.00 meters
Time Weather Temp Dew Point
Humidity Winds Visibility Pressure Precipitation
1 hr 24 hr
Sunday, May 21
23:53 23:53 Cloudy With Light Drizzle Cloudy With Light Drizzle 50°F10°C 47°F8°C 89% ESE 7 mphESE 11 kph 10.0 miles16.1 km 29.8 in1009 hPa 0.00 in0.03 mm --
22:53 22:53 Cloudy With Light Drizzle Cloudy With Light Drizzle 49°F9°C 47°F8°C 93% ESE 13 mphESE 20 kph 10.0 miles16.1 km 29.8 in1009 hPa 0.01 in6.45 mm --
21:53 21:53 Cloudy With Light Drizzle Cloudy With Light Drizzle 49°F9°C 46°F8°C 90% ESE 13 mphESE 20 kph 6.0 miles9.7 km 29.83 in1010 hPa 0.00 in0.03 mm --
21:02 21:02 Cloudy With Light Drizzle Cloudy With Light Drizzle 49°F9°C 46°F8°C 90% E 14 mphE 22 kph 4.0 miles6.4 km 29.8 in1009 hPa 0.00 in0.03 mm --
20:53 20:53 Cloudy With Light Drizzle Cloudy With Light Drizzle 49°F9°C 46°F8°C 90% ESE 16 mphESE 26 kph 5.0 miles8.0 km 29.8 in1009 hPa 0.00 in0.03 mm --
19:53 19:53 Cloudy With Light Drizzle Cloudy With Light Drizzle 49°F9°C 46°F8°C 90% E 14 mphE 22 kph 10.0 miles16.1 km 29.83 in1010 hPa 0.01 in6.45 mm --
19:49 19:49 Cloudy With Light Drizzle Cloudy With Light Drizzle 48°F9°C 46°F8°C 94% E 13 mphE 20 kph 10.0 miles16.1 km 29.83 in1010 hPa 0.01 in6.45 mm --
19:19 19:19 Cloudy With Light Rain Cloudy With Light Rain 48°F9°C 46°F8°C 93% E 12 mphE 19 kph 3.0 miles4.8 km 29.85 in1011 hPa 0.01 in6.45 mm --
19:10 19:10 Cloudy With Light Rain Cloudy With Light Rain 48°F9°C 46°F8°C 93% E 12 mphE 19 kph 2.5 miles4.0 km 29.85 in1011 hPa 0.01 in6.45 mm --
19:02 19:02 Cloudy With Light Rain Cloudy With Light Rain 48°F9°C 46°F8°C 93% E 13 mphE 20 kph 1.8 miles2.8 km 29.85 in1011 hPa 0.00 in0.03 mm --
18:53 18:53 Cloudy With Light Rain Cloudy With Light Rain 48°F9°C 46°F8°C 93% E 12 mphE 19 kph 1.8 miles2.8 km 29.85 in1011 hPa 0.01 in6.45 mm --
18:22 18:22 Cloudy With Light Rain Cloudy With Light Rain 48°F9°C 45°F7°C 89% E 10 mphE 17 kph 2.5 miles4.0 km 29.88 in1012 hPa 0.00 in0.03 mm --
17:53 17:53 Cloudy With Light Drizzle Cloudy With Light Drizzle 48°F9°C 45°F7°C 89% ENE 10 mphENE 17 kph 10.0 miles16.1 km 29.88 in1012 hPa 0.07 in45.16 mm --
17:48 17:48 Cloudy With Light Drizzle Cloudy With Light Drizzle 48°F9°C 45°F7°C 87% ENE 10 mphENE 17 kph 10.0 miles16.1 km 29.88 in1012 hPa 0.07 in45.16 mm --
17:33 17:33 Cloudy With Light Drizzle Cloudy With Light Drizzle 48°F9°C 45°F7°C 89% E 9 mphE 15 kph 9.0 miles14.5 km 29.88 in1012 hPa 0.07 in45.16 mm --
17:13 17:13 Cloudy With Light Rain Cloudy With Light Rain 47°F8°C 44°F7°C 90% E 10 mphE 17 kph 3.0 miles4.8 km 29.88 in1012 hPa 0.06 in38.71 mm --
17:07 17:07 Cloudy With Rain Cloudy With Rain 47°F8°C 44°F7°C 90% E 12 mphE 19 kph 2.5 miles4.0 km 29.88 in1012 hPa 0.05 in32.26 mm --
16:53 16:53 Cloudy With Rain Cloudy With Rain 47°F8°C 44°F7°C 90% E 9 mphE 15 kph 3.0 miles4.8 km 29.88 in1012 hPa 0.20 in129.03 mm --
16:28 16:28 Cloudy With Rain Cloudy With Rain 46°F8°C 43°F6°C 89% ENE 13 mphENE 20 kph 3.0 miles4.8 km 29.88 in1012 hPa 0.14 in90.32 mm --
16:21 16:21 Cloudy With Rain Cloudy With Rain 46°F8°C 43°F6°C 89% ENE 14 mphENE 22 kph 3.0 miles4.8 km 29.88 in1012 hPa 0.12 in77.42 mm --
16:09 16:09 Cloudy With Rain Cloudy With Rain 46°F8°C 43°F6°C 89% ENE 12 mphENE 19 kph 3.0 miles4.8 km 29.91 in1013 hPa 0.06 in38.71 mm --
15:53 15:53 Cloudy With Rain Cloudy With Rain 46°F8°C 43°F6°C 89% E 14 mphE 22 kph 2.0 miles3.2 km 29.91 in1013 hPa 0.23 in148.39 mm --
15:36 15:36 Cloudy With Rain Cloudy With Rain 46°F8°C 42°F6°C 86% E 12 mphE 19 kph 2.0 miles3.2 km 29.91 in1013 hPa 0.14 in90.32 mm --
15:28 15:28 Cloudy With Rain Cloudy With Rain 45°F7°C 42°F6°C 90% E 10 mphE 17 kph 3.0 miles4.8 km 29.91 in1013 hPa 0.11 in70.97 mm --
15:12 15:12 Cloudy With Rain Cloudy With Rain 45°F7°C 42°F6°C 90% E 14 mphE 22 kph 1.8 miles2.8 km 29.91 in1013 hPa 0.03 in19.35 mm --
14:53 14:53 Cloudy With Light Rain Cloudy With Light Rain 45°F7°C 42°F6°C 90% ENE 16 mphENE 26 kph 3.0 miles4.8 km 29.91 in1013 hPa 0.11 in70.97 mm --
14:26 14:26 Cloudy With Light Rain Cloudy With Light Rain 45°F7°C 41°F5°C 86% E 16 mphE 26 kph 3.0 miles4.8 km 29.94 in1014 hPa 0.07 in45.16 mm --
14:14 14:14 Cloudy With Rain Cloudy With Rain 44°F7°C 41°F5°C 89% ENE 15 mphENE 24 kph 2.5 miles4.0 km 29.94 in1014 hPa 0.04 in25.81 mm --
14:05 14:05 Cloudy With Light Rain Cloudy With Light Rain 44°F7°C 41°F5°C 89% ENE 15 mphENE 24 kph 2.5 miles4.0 km 29.94 in1014 hPa 0.02 in12.90 mm --
13:53 13:53 Cloudy With Light Rain Cloudy With Light Rain 44°F7°C 40°F4°C 85% ENE 15 mphENE 24 kph 3.0 miles4.8 km 29.94 in1014 hPa 0.08 in51.61 mm --
13:00 13:00 Cloudy With Light Rain Cloudy With Light Rain 43°F6°C 40°F4°C 89% E 15 mphE 24 kph 4.0 miles6.4 km 29.97 in1015 hPa 0.01 in6.45 mm --
12:53 12:53 Cloudy With Rain Cloudy With Rain 43°F6°C 40°F4°C 89% ENE 14 mphENE 22 kph 2.0 miles3.2 km 29.97 in1015 hPa 0.18 in116.13 mm --
12:43 12:43 Cloudy With Rain Cloudy With Rain 43°F6°C 40°F4°C 89% ENE 14 mphENE 22 kph 2.0 miles3.2 km 30 in1016 hPa 0.15 in96.77 mm --
12:38 12:38 Cloudy With Rain Cloudy With Rain 43°F6°C 40°F4°C 89% ENE 15 mphENE 24 kph 1.5 miles2.4 km 30 in1016 hPa 0.13 in83.87 mm --
12:02 12:02 Cloudy With Rain Cloudy With Rain 43°F6°C 39°F4°C 86% ENE 15 mphENE 24 kph 2.5 miles4.0 km 30 in1016 hPa 0.02 in12.90 mm --
11:53 11:53 Cloudy With Light Rain Cloudy With Light Rain 43°F6°C 39°F4°C 86% ENE 14 mphENE 22 kph 3.0 miles4.8 km 30 in1016 hPa 0.22 in141.94 mm --
11:51 11:51 Cloudy With Light Rain Cloudy With Light Rain 43°F6°C 39°F4°C 87% ENE 15 mphENE 24 kph 3.0 miles4.8 km 30 in1016 hPa 0.22 in141.94 mm --
11:48 11:48 Cloudy With Light Rain Cloudy With Light Rain 43°F6°C 39°F4°C 87% ENE 14 mphENE 22 kph 3.0 miles4.8 km 30 in1016 hPa 0.21 in135.48 mm --
11:21 11:21 Cloudy With Rain Cloudy With Rain 42°F6°C 39°F4°C 89% ENE 15 mphENE 24 kph 2.0 miles3.2 km 30 in1016 hPa 0.14 in90.32 mm --
11:08 11:08 Cloudy With Heavy Rain Cloudy With Heavy Rain 42°F6°C 38°F3°C 85% ENE 12 mphENE 19 kph 2.0 miles3.2 km 30 in1016 hPa 0.08 in51.61 mm --
10:53 10:53 Cloudy With Heavy Rain Cloudy With Heavy Rain 42°F6°C 38°F3°C 85% ENE 13 mphENE 20 kph 2.0 miles3.2 km 30 in1016 hPa 0.25 in161.29 mm --
10:36 10:36 Cloudy With Heavy Rain Cloudy With Heavy Rain 42°F6°C 38°F3°C 85% ENE 13 mphENE 20 kph 1.5 miles2.4 km 30.03 in1017 hPa 0.16 in103.23 mm --
10:29 10:29 Cloudy With Rain Cloudy With Rain 42°F6°C 38°F3°C 85% ENE 15 mphENE 24 kph 2.0 miles3.2 km 30.03 in1017 hPa 0.13 in83.87 mm --
10:12 10:12 Cloudy With Rain Cloudy With Rain 42°F6°C 37°F3°C 82% E 13 mphE 20 kph 1.5 miles2.4 km 30.06 in1018 hPa 0.07 in45.16 mm --
09:53 09:53 Cloudy With Rain Cloudy With Rain 43°F6°C 37°F3°C 80% ENE 17 mphENE 28 kph 2.5 miles4.0 km 30.03 in1017 hPa 0.08 in51.61 mm --
08:53 08:53 Cloudy With Light Rain Cloudy With Light Rain 44°F7°C 37°F3°C 76% E 15 mphE 24 kph 4.0 miles6.4 km 30.06 in1018 hPa 0.02 in12.90 mm --
07:53 07:53 Cloudy With Light Rain Cloudy With Light Rain 45°F7°C 35°F2°C 68% ENE 14 mphENE 22 kph 9.0 miles14.5 km 30.06 in1018 hPa 0.00 in0.03 mm --
06:53 06:53 Cloudy With Light Rain Cloudy With Light Rain 47°F8°C 31°F-1°C 54% ENE 14 mphENE 22 kph 10.0 miles16.1 km 30.06 in1018 hPa 0.00 in0.03 mm --
05:53 05:53 Cloudy Cloudy 48°F9°C 29°F-2°C 48% E 17 mphE 28 kph 10.0 miles16.1 km 30.09 in1019 hPa 0.00 in0.00 mm --
04:53 04:53 Cloudy Cloudy 49°F9°C 29°F-2°C 46% E 15 mphE 24 kph 10.0 miles16.1 km 30.12 in1020 hPa 0.00 in0.00 mm --
03:53 03:53 Cloudy Cloudy 49°F9°C 28°F-2°C 44% E 16 mphE 26 kph 10.0 miles16.1 km 30.12 in1020 hPa 0.00 in0.00 mm --
02:53 02:53 Cloudy Cloudy 50°F10°C 33°F1°C 52% E 15 mphE 24 kph 10.0 miles16.1 km 30.12 in1020 hPa 0.00 in0.00 mm --
01:53 01:53 Cloudy Cloudy 51°F11°C 34°F1°C 52% ENE 13 mphENE 20 kph 10.0 miles16.1 km 30.18 in1022 hPa 0.00 in0.00 mm --
00:53 00:53 Cloudy Cloudy 51°F11°C 34°F1°C 52% ENE 13 mphENE 20 kph 10.0 miles16.1 km 30.18 in1022 hPa 0.00 in0.00 mm --